カタログに戻る

STARLINK-30440

運用中通信VLEO
NORAD 57923·PAYLOAD·🇺🇸 United States

打ち上げ Sep 24, 2023 から Cape Canaveral Space Force Station

Loading…

次のパス (今後24時間)

TLE

最新Source: CelesTrak SupGP

元期: Sep 14, 2026, 21:31 UTC

1 57923C 23147L   26257.89701389 -.00027041  00000+0 -97939-3 0  2572
2 57923  43.0023 337.0524 0001505 268.5170 329.0546 15.27593222    12

AllMySatでSTARLINK-30440をリアルタイム追跡

Download on the App Store